N1IJV-10 Weather Reports


time (UTC)temp
F
wind
direction
speed
knots
gust
knots
rain 1hr
in
rain 24hr
in
rain mn
in
humidity
%
barometer
mb
20260510112725 40 92 0.0 0.0 0.00 0.00 0.00 89 1016.3
20260510112222 39 92 0.0 0.0 0.00 0.00 0.00 91 1016.1
20260510111717 37 92 0.0 0.0 0.00 0.00 0.00 90 1016.2
20260510111214 38 92 0.0 0.0 0.00 0.00 0.00 90 1016.2
20260510110709 38 92 0.0 0.0 0.00 0.00 0.00 90 1016.0
20260510110207 38 94 0.0 0.0 0.00 0.00 0.00 90 1015.9
20260510105707 38 90 0.0 0.0 0.00 0.00 0.00 90 1015.9
20260510105207 38 95 0.0 0.0 0.00 0.00 0.00 89 1015.8
20260510104704 38 91 0.0 0.0 0.00 0.00 0.00 88 1015.7
20260510104201 38 92 0.0 0.0 0.00 0.00 0.00 88 1015.5
20260510103657 38 90 0.0 0.0 0.00 0.00 0.00 88 1015.6
20260510103154 38 94 0.0 0.0 0.00 0.00 0.00 87 1015.6
20260510102654 38 99 0.0 0.0 0.00 0.00 0.00 87 1015.5
20260510102151 39 90 0.0 0.0 0.00 0.00 0.00 87 1015.5
20260510101648 39 100 0.0 0.0 0.00 0.00 0.00 86 1015.6
20260510101147 39 94 0.0 0.0 0.00 0.00 0.00 86 1015.2
20260510100642 39 95 0.0 0.0 0.00 0.00 0.00 86 1015.2
20260510100140 39 93 0.0 0.0 0.00 0.00 0.00 85 1015.1
20260510095635 39 93 0.0 0.0 0.00 0.00 0.00 84 1015.0
20260510095130 40 90 0.0 0.0 0.00 0.00 0.00 83 1015.2
20260510094629 40 91 0.0 0.0 0.00 0.00 0.00 82 1014.9
20260510094125 40 92 0.0 0.0 0.00 0.00 0.00 81 1015.0
20260510093621 41 92 0.0 0.0 0.00 0.00 0.00 81 1014.9
20260510093119 41 92 0.0 0.0 0.00 0.00 0.00 81 1014.7
20260510092615 41 86 0.0 0.0 0.00 0.00 0.00 81 1014.8
20260510092115 41 89 0.0 0.0 0.00 0.00 0.00 80 1014.9
20260510091612 41 89 0.0 0.0 0.00 0.00 0.00 79 1015.0
20260510091108 42 89 0.0 0.0 0.00 0.00 0.00 78 1015.1
20260510090605 42 89 0.0 0.0 0.00 0.00 0.00 76 1014.8
20260510090101 42 87 0.0 0.0 0.00 0.00 0.00 75 1015.0
20260510085556 43 87 0.0 0.0 0.00 0.00 0.00 74 1014.9
20260510085052 43 86 0.0 0.0 0.00 0.00 0.00 72 1014.9
20260510084549 44 85 0.0 0.0 0.00 0.00 0.00 71 1014.9
20260510084045 45 86 0.0 0.0 0.00 0.00 0.00 69 1014.6
20260510083542 45 85 0.0 0.0 0.00 0.00 0.00 66 1015.0
20260510083038 46 81 0.0 0.0 0.00 0.00 0.00 64 1014.7
20260510082535 46 82 0.0 0.9 0.00 0.00 0.00 64 1014.8
20260510082030 46 77 0.9 0.9 0.00 0.00 0.00 63 1014.7
20260510081526 47 78 0.9 1.7 0.00 0.00 0.00 62 1014.7
20260510081022 47 60 0.9 0.9 0.00 0.00 0.00 62 1014.4
20260510080521 47 82 0.9 0.9 0.00 0.00 0.00 62 1014.3
20260510080018 48 64 0.9 1.7 0.00 0.00 0.00 61 1014.4
20260510075515 48 73 1.7 1.7 0.00 0.00 0.00 60 1014.1
20260510075012 48 19 2.6 2.6 0.00 0.00 0.00 60 1013.8
20260510074510 48 60 0.9 2.6 0.00 0.00 0.00 60 1013.9
20260510074005 48 63 1.7 4.3 0.00 0.00 0.00 60 1013.7
20260510073501 48 73 0.0 1.7 0.00 0.00 0.00 64 1013.6
20260510072958 48 54 0.9 1.7 0.00 0.00 0.00 63 1013.7
20260510072455 48 79 0.0 2.6 0.00 0.00 0.00 64 1013.8
20260510071950 48 24 0.9 1.7 0.00 0.00 0.00 67 1013.7
20260510071446 48 65 0.9 2.6 0.00 0.00 0.00 68 1013.3
20260510070945 48 46 1.7 1.7 0.00 0.00 0.00 70 1013.1
20260510070442 48 74 0.9 4.3 0.00 0.00 0.00 70 1013.3
20260510065937 48 72 0.9 0.9 0.00 0.00 0.00 72 1013.3
20260510065435 46 53 2.6 2.6 0.00 0.00 0.00 77 1013.1
20260510064930 44 94 0.0 0.0 0.00 0.00 0.00 85 1013.1
20260510064428 44 97 0.0 0.0 0.00 0.00 0.00 87 1012.9
20260510063925 44 87 0.0 0.0 0.00 0.00 0.00 88 1012.9
20260510063421 44 76 0.0 0.0 0.00 0.00 0.00 89 1012.8
20260510062919 44 83 0.0 0.0 0.00 0.00 0.00 89 1012.6
20260510062414 43 94 0.0 0.0 0.00 0.00 0.00 88 1012.5
20260510061910 44 95 0.0 0.0 0.00 0.00 0.00 87 1012.8
20260510061407 44 106 0.0 0.0 0.00 0.00 0.00 87 1012.7
20260510060902 44 93 0.0 0.0 0.00 0.00 0.00 87 1012.5
20260510060359 44 84 0.0 0.0 0.00 0.00 0.00 87 1012.3
20260510055856 44 110 0.0 0.0 0.00 0.00 0.00 87 1012.4
20260510055355 44 83 0.0 0.0 0.00 0.00 0.00 85 1012.5
20260510054849 44 95 0.0 0.0 0.00 0.00 0.00 84 1012.5
20260510054345 45 94 0.0 0.0 0.00 0.00 0.00 84 1012.4
20260510053840 45 93 0.0 0.0 0.00 0.00 0.00 83 1012.3
20260510053335 45 97 0.0 0.0 0.00 0.00 0.00 83 1012.3
20260510052832 46 100 0.0 0.0 0.00 0.00 0.00 83 1012.3
20260510052327 46 100 0.0 0.0 0.00 0.00 0.00 83 1012.2
20260510051824 46 96 0.0 0.0 0.00 0.00 0.00 83 1011.8
20260510051321 46 105 0.0 0.0 0.00 0.00 0.00 84 1012.1
20260510050818 46 94 0.0 0.0 0.00 0.00 0.00 84 1011.9
20260510050314 46 91 0.9 1.7 0.00 0.00 0.00 85 1011.6
20260510045812 46 93 0.0 0.0 0.00 0.00 0.00 84 1011.6
20260510045308 47 113 0.0 0.0 0.00 0.00 0.00 83 1011.5
20260510044805 47 103 0.0 0.0 0.00 0.00 0.00 81 1011.3
20260510044302 46 93 0.0 0.0 0.00 0.00 0.00 80 1011.5
20260510043758 47 90 0.0 0.0 0.00 0.00 0.00 80 1011.3
20260510043249 47 92 0.0 0.0 0.00 0.00 0.00 78 1011.1
20260510042746 47 90 0.0 0.0 0.00 0.00 0.00 75 1011.1
20260510042242 48 89 0.0 0.0 0.00 0.00 0.00 74 1010.9
20260510041739 48 93 0.0 0.0 0.00 0.00 0.00 74 1011.0
20260510041236 49 93 0.0 0.0 0.00 0.00 0.00 73 1010.8
20260510040733 49 94 0.0 0.0 0.00 0.00 0.00 72 1010.7
20260510040230 49 93 0.0 0.0 0.00 0.00 0.00 71 1010.6
20260510035725 50 88 0.0 0.0 0.00 0.00 0.00 69 1010.5
20260510035221 50 87 0.0 0.0 0.00 0.00 0.00 69 1010.7
20260510034717 51 87 0.0 0.0 0.00 0.00 0.00 67 1010.7
20260510034216 51 84 0.0 0.0 0.00 0.00 0.00 65 1010.6
20260510033711 51 87 0.0 0.0 0.00 0.00 0.00 65 1010.5
20260510033210 52 86 0.0 0.0 0.00 0.00 0.00 63 1010.7
20260510032705 52 93 0.0 0.0 0.00 0.00 0.00 62 1010.3
20260510032201 53 93 0.0 0.0 0.00 0.00 0.00 61 1010.4
20260510031655 53 89 0.0 0.9 0.00 0.00 0.00 60 1010.4
20260510031152 53 88 0.0 0.0 0.00 0.00 0.00 60 1010.4
20260510030646 54 81 0.0 0.9 0.00 0.00 0.00 60 1010.2
20260510030145 55 70 0.9 0.9 0.00 0.00 0.00 56 1010.2
20260510025642 55 71 0.0 0.9 0.00 0.00 0.00 55 1010.0
20260510025139 55 79 0.9 1.7 0.00 0.00 0.00 54 1009.8
20260510024635 55 83 0.0 1.7 0.00 0.00 0.00 54 1009.8
20260510024132 56 55 0.0 1.7 0.00 0.00 0.00 54 1009.8
20260510023628 56 84 0.9 1.7 0.00 0.00 0.00 54 1009.6
20260510023126 56 75 0.0 0.9 0.00 0.00 0.00 54 1009.5
20260510022625 57 89 0.0 0.9 0.00 0.00 0.00 54 1009.5
20260510022120 57 88 0.9 1.7 0.00 0.00 0.00 53 1009.4
20260510021611 57 72 0.9 2.6 0.00 0.00 0.00 52 1009.0
20260510021108 58 59 0.9 1.7 0.00 0.00 0.00 52 1008.7
20260510020602 59 88 0.9 0.9 0.00 0.00 0.00 51 1008.7
20260510020058 60 58 0.9 1.7 0.00 0.00 0.00 48 1008.5
20260510015554 62 66 1.7 2.6 0.00 0.00 0.00 46 1008.5
20260510015050 62 90 0.9 0.9 0.00 0.00 0.00 42 1008.3
20260510014546 62 61 0.9 1.7 0.00 0.00 0.00 42 1008.0
20260510014043 63 82 0.0 2.6 0.00 0.00 0.00 42 1008.0
20260510013538 63 67 0.9 1.7 0.00 0.00 0.00 42 1007.9
20260510013034 63 46 2.6 2.6 0.00 0.00 0.00 42 1007.5
20260510012528 63 53 0.9 1.7 0.00 0.00 0.00 44 1007.6
20260510012025 63 66 0.9 0.9 0.00 0.00 0.00 43 1007.5
20260510011525 64 40 2.6 4.3 0.00 0.00 0.00 41 1007.3
20260510011021 64 76 1.7 1.7 0.00 0.00 0.00 42 1007.3
20260510010518 65 72 0.9 2.6 0.00 0.00 0.00 41 1007.1
20260510010015 65 116 1.7 5.2 0.00 0.00 0.00 40 1007.1
20260510005510 65 38 0.9 1.7 0.00 0.00 0.00 43 1006.9
20260510005008 66 21 4.3 5.2 0.00 0.00 0.00 40 1007.0
20260510004505 66 335 1.7 4.3 0.00 0.00 0.00 43 1007.0
20260510004003 66 103 0.0 0.9 0.00 0.00 0.00 43 1006.3
20260510003500 66 81 0.9 2.6 0.00 0.00 0.00 42 1006.7
20260510002955 67 6 1.7 4.3 0.00 0.00 0.00 40 1006.3
20260510002451 67 32 2.6 2.6 0.00 0.00 0.00 38 1006.0
20260510001947 68 47 2.6 5.2 0.00 0.00 0.00 38 1005.9
20260510001445 68 8 2.6 4.3 0.00 0.00 0.00 37 1006.0
20260510000943 68 326 4.3 8.7 0.00 0.00 0.00 37 1005.7
20260510000440 68 277 1.7 5.2 0.00 0.00 0.00 38 1005.7
20260509235935 69 44 2.6 4.3 0.00 0.00 0.00 37 1005.7
20260509235432 69 12 4.3 7.8 0.00 0.00 0.00 38 1005.5
20260509234928 69 276 3.5 4.3 0.00 0.00 0.00 39 1005.4
20260509234425 69 264 3.5 8.7 0.00 0.00 0.00 38 1005.5
20260509233923 70 260 2.6 5.2 0.00 0.00 0.00 39 1005.5
20260509233421 70 327 1.7 1.7 0.00 0.00 0.00 39 1005.4
20260509232916 70 338 1.7 4.3 0.00 0.00 0.00 36 1005.3
20260509232415 70 47 1.7 7.0 0.00 0.00 0.00 36 1005.2
20260509231910 70 348 2.6 5.2 0.00 0.00 0.00 37 1005.2
20260509231407 70 263 2.6 7.0 0.00 0.00 0.00 36 1005.1
20260509230905 71 333 2.6 7.0 0.00 0.00 0.00 36 1005.0
20260509230401 71 137 4.3 6.1 0.00 0.00 0.00 37 1004.8
20260509225857 71 86 1.7 5.2 0.00 0.00 0.00 38 1004.8
20260509225354 71 297 2.6 7.8 0.00 0.00 0.00 38 1004.8
20260509224849 71 270 3.5 6.1 0.00 0.00 0.00 36 1004.8
20260509224345 71 1 4.3 8.7 0.00 0.00 0.00 33 1004.7
20260509223843 72 213 3.5 5.2 0.00 0.00 0.00 38 1004.5
20260509223340 71 307 4.3 7.0 0.00 0.00 0.00 34 1004.5
20260509222837 72 307 6.1 7.8 0.00 0.00 0.00 34 1004.6
20260509222332 72 313 4.3 6.1 0.00 0.00 0.00 34 1004.5
20260509221827 72 35 1.7 6.1 0.00 0.00 0.00 35 1004.5
20260509221325 72 82 3.5 6.1 0.00 0.00 0.00 35 1004.4
20260509220825 73 275 5.2 7.0 0.00 0.00 0.00 35 1004.3
20260509220321 73 210 3.5 6.1 0.00 0.00 0.00 36 1004.2
20260509215817 73 17 2.6 6.1 0.00 0.00 0.00 36 1004.4
20260509215314 73 58 2.6 5.2 0.00 0.00 0.00 35 1004.3
20260509214811 73 289 3.5 8.7 0.00 0.00 0.00 34 1004.1
20260509214308 73 358 2.6 4.3 0.00 0.00 0.00 34 1004.1
20260509213805 73 303 6.1 8.7 0.00 0.00 0.00 34 1004.1
20260509213300 73 1 2.6 4.3 0.00 0.00 0.00 36 1004.0
20260509212758 72 76 1.7 6.1 0.00 0.00 0.00 36 1003.7
20260509212255 73 45 3.5 6.1 0.00 0.00 0.00 37 1004.0
20260509211750 74 287 3.5 7.0 0.00 0.00 0.00 36 1003.9
20260509211247 74 325 4.3 7.0 0.00 0.00 0.00 34 1003.6
20260509210743 74 224 4.3 6.1 0.00 0.00 0.00 34 1003.7
20260509210242 74 326 2.6 5.2 0.00 0.00 0.00 36 1003.7
20260509205741 73 85 2.6 7.0 0.00 0.00 0.00 39 1003.6
20260509205236 74 301 6.1 7.8 0.00 0.00 0.00 35 1003.6
20260509204732 73 12 4.3 7.0 0.00 0.00 0.00 36 1003.6
20260509204229 75 348 4.3 7.0 0.00 0.00 0.00 34 1003.5
20260509203725 75 27 2.6 6.1 0.00 0.00 0.00 34 1003.7
20260509203223 75 295 2.6 7.8 0.00 0.00 0.00 37 1003.5
20260509202719 75 281 4.3 7.8 0.00 0.00 0.00 34 1003.5
20260509202215 72 260 4.3 6.1 0.00 0.00 0.00 38 1003.5
20260509201709 72 43 3.5 7.0 0.00 0.00 0.00 36 1003.6
20260509201207 73 26 2.6 6.1 0.00 0.00 0.00 37 1003.6
20260509200703 73 185 2.6 6.1 0.00 0.00 0.00 35 1003.5
20260509200157 74 279 2.6 6.1 0.00 0.00 0.00 34 1003.8
20260509195653 74 278 2.6 5.2 0.00 0.00 0.00 36 1003.6
20260509195149 71 267 3.5 7.0 0.00 0.00 0.00 37 1003.7
20260509194643 72 268 3.5 6.1 0.00 0.00 0.00 38 1003.6
20260509194141 73 265 3.5 6.1 0.00 0.00 0.00 36 1003.7
20260509193636 71 306 6.1 7.8 0.00 0.00 0.00 36 1003.8
20260509193132 71 290 6.1 7.8 0.00 0.00 0.00 36 1003.7
20260509192629 72 253 4.3 5.2 0.00 0.00 0.00 40 1003.6
20260509192123 71 244 4.3 5.2 0.00 0.00 0.00 40 1003.7
20260509191618 71 283 2.6 5.2 0.00 0.00 0.00 38 1003.8
20260509191115 70 216 3.5 5.2 0.00 0.00 0.00 39 1003.9
20260509190611 71 166 4.3 6.1 0.00 0.00 0.00 37 1003.8
20260509190109 72 289 4.3 7.0 0.00 0.00 0.00 36 1003.7
20260509185606 72 38 2.6 4.3 0.00 0.00 0.00 37 1003.6
20260509185102 71 263 4.3 5.2 0.00 0.00 0.00 39 1003.4
20260509184601 72 300 4.3 6.1 0.00 0.00 0.00 35 1003.6
20260509184057 73 287 3.5 7.0 0.00 0.00 0.00 33 1003.6
20260509183552 74 74 0.9 4.3 0.00 0.00 0.00 36 1003.4
20260509183048 73 132 1.7 4.3 0.00 0.00 0.00 41 1003.5
20260509182545 72 263 3.5 5.2 0.00 0.00 0.00 35 1003.4
20260509182042 72 206 2.6 4.3 0.00 0.00 0.00 38 1003.5
20260509181540 72 264 3.5 5.2 0.00 0.00 0.00 38 1003.6
20260509181037 71 91 2.6 5.2 0.00 0.00 0.00 39 1003.6
20260509180532 72 245 3.5 6.1 0.00 0.00 0.00 40 1003.5
20260509180031 73 359 2.6 4.3 0.00 0.00 0.00 38 1003.5
20260509175525 73 209 2.6 5.2 0.00 0.00 0.00 38 1003.8
20260509175023 71 229 1.7 2.6 0.00 0.00 0.00 38 1003.7
20260509174519 72 26 2.6 5.2 0.00 0.00 0.00 40 1003.9
20260509174014 73 273 3.5 4.3 0.00 0.00 0.00 41 1003.8
20260509173509 71 307 3.5 4.3 0.00 0.00 0.00 40 1003.8
20260509173005 71 275 4.3 5.2 0.00 0.00 0.00 40 1003.7
20260509172503 72 234 2.6 5.2 0.00 0.00 0.00 43 1004.0
20260509171958 72 274 4.3 5.2 0.00 0.00 0.00 39 1003.8
20260509171454 72 70 2.6 4.3 0.00 0.00 0.00 43 1003.9
20260509170951 73 135 1.7 4.3 0.00 0.00 0.00 45 1003.8
20260509170446 72 256 4.3 7.8 0.00 0.00 0.00 40 1004.0
20260509165942 72 13 3.5 5.2 0.00 0.00 0.00 42 1003.7
20260509165442 73 287 4.3 6.1 0.00 0.00 0.00 41 1003.8
20260509164937 73 192 1.7 4.3 0.00 0.00 0.00 55 1003.8
20260509164433 72 184 1.7 7.8 0.00 0.00 0.00 51 1003.9
20260509163929 71 349 2.6 4.3 0.00 0.00 0.00 51 1004.0
20260509163427 71 250 2.6 2.6 0.00 0.00 0.00 52 1003.9
20260509162926 70 101 0.9 6.1 0.00 0.00 0.00 52 1003.9
20260509162425 70 175 2.6 4.3 0.00 0.00 0.00 54 1003.9
20260509161920 69 41 0.0 0.9 0.00 0.00 0.00 60 1003.7
20260509161417 69 187 3.5 6.1 0.00 0.00 0.00 55 1003.8
20260509160913 69 78 1.7 4.3 0.00 0.00 0.00 60 1003.8
20260509160408 68 4 1.7 2.6 0.00 0.00 0.00 58 1003.9
20260509155904 68 89 0.9 5.2 0.00 0.00 0.00 61 1003.8
20260509155401 68 294 2.6 7.0 0.00 0.00 0.00 62 1004.1
20260509154857 67 147 1.7 4.3 0.00 0.00 0.00 64 1003.8
20260509154354 67 66 2.6 5.2 0.00 0.00 0.00 65 1003.9
20260509153850 67 10 1.7 2.6 0.00 0.00 0.00 65 1003.8
20260509153347 66 86 1.7 6.1 0.00 0.00 0.00 66 1004.0
20260509152844 66 260 1.7 2.6 0.00 0.00 0.00 67 1003.7
20260509152340 66 208 2.6 5.2 0.00 0.00 0.00 67 1003.9
20260509151838 65 143 4.3 7.0 0.00 0.00 0.00 67 1004.0
20260509151333 65 95 0.9 2.6 0.00 0.00 0.00 69 1003.8
20260509150832 64 180 1.7 2.6 0.00 0.00 0.00 70 1003.9
20260509150329 64 58 0.9 5.2 0.00 0.00 0.00 70 1004.0
20260509145827 64 160 0.9 4.3 0.00 0.00 0.00 72 1004.1
20260509145321 63 144 1.7 1.7 0.00 0.00 0.00 74 1004.0
20260509144818 63 185 3.5 7.0 0.00 0.00 0.00 74 1003.8
20260509144315 63 166 5.2 7.0 0.00 0.00 0.00 73 1004.0
20260509143812 62 189 1.7 7.0 0.00 0.00 0.00 75 1004.0
20260509143310 62 185 3.5 5.2 0.00 0.00 0.00 74 1004.1
20260509142806 62 128 2.6 5.2 0.00 0.00 0.00 75 1003.9
20260509142306 62 78 0.9 2.6 0.00 0.00 0.00 78 1003.9
20260509141757 61 136 1.7 7.0 0.00 0.00 0.00 77 1003.7
20260509141255 61 89 0.9 5.2 0.00 0.00 0.00 77 1003.8
20260509140751 60 184 2.6 6.1 0.00 0.00 0.00 78 1003.9
20260509140248 61 53 1.7 2.6 0.00 0.00 0.00 78 1003.9
20260509135746 60 100 0.0 2.6 0.00 0.00 0.00 79 1004.0
20260509135243 60 79 0.0 2.6 0.00 0.00 0.00 82 1004.0
20260509134740 59 190 2.6 4.3 0.00 0.00 0.00 82 1003.9
20260509134238 59 227 2.6 7.0 0.00 0.00 0.00 82 1003.7
20260509133735 58 159 4.3 5.2 0.00 0.00 0.00 83 1003.5
20260509133231 58 142 2.6 5.2 0.00 0.00 0.00 85 1003.5
20260509132730 57 165 3.5 5.2 0.00 0.00 0.00 85 1003.5
20260509132229 57 122 1.7 8.7 0.00 0.00 0.00 86 1003.6
20260509131725 57 170 4.3 6.1 0.00 0.00 0.00 86 1003.6
20260509131221 56 241 4.3 6.1 0.00 0.00 0.00 87 1004.0
20260509130717 56 201 2.6 7.0 0.00 0.00 0.00 87 1003.7
20260509130213 56 125 1.7 5.2 0.00 0.00 0.00 88 1003.6
20260509125710 56 178 2.6 5.2 0.00 0.00 0.00 89 1003.7
20260509125207 55 139 2.6 4.3 0.00 0.00 0.00 89 1003.7
20260509124703 55 175 2.6 5.2 0.00 0.00 0.00 90 1003.7
20260509124200 55 221 1.7 2.6 0.00 0.00 0.00 90 1003.7
20260509123659 55 163 0.9 1.7 0.00 0.00 0.00 91 1003.6
20260509123155 54 93 0.9 8.7 0.00 0.00 0.00 92 1003.7
20260509122650 54 169 4.3 7.0 0.00 0.00 0.00 93 1003.6
20260509122148 53 151 0.9 4.3 0.00 0.00 0.00 95 1003.7
20260509121644 53 202 4.3 5.2 0.00 0.00 0.00 96 1003.6
20260509121142 53 225 0.0 1.7 0.00 0.00 0.00 97 1003.7
20260509120640 52 323 3.5 5.2 0.00 0.00 0.00 97 1003.6
20260509120138 52 138 1.7 4.3 0.00 0.00 0.00 98 1003.7
20260509115635 51 280 1.7 4.3 0.00 0.00 0.00 98 1003.8
20260509115133 51 218 1.7 2.6 0.00 0.00 0.00 99 1003.8
20260509114631 51 144 0.9 2.6 0.00 0.00 0.00 99 1003.7
20260509114129 51 129 1.7 1.7 0.00 0.00 0.00 99 1003.7
20260509113628 51 153 0.9 1.7 0.00 0.00 0.00 99 1003.3